Location: Elbart
(49.6135°N, 11.9134°E)
Time: 10:56:34
(UTC+00:00)

ERBS - Pass Details

Date: 09 April 2020
Orbit: 410 x 426 km, 57.0° (Epoch: 27 May)

Event Time Altitude Azimuth Distance (km) Brightness Sun altitude
Rises 18:32:58 0° 303° (WNW) 2,393 8.1 -6.4°
Reaches altitude 10° 18:35:10 10° 312° (NW) 1,526 6.4 -6.8°
Maximum altitude 18:38:24 38° 22° (NNE) 667 3.3 -7.2°
Drops below altitude 10° 18:41:37 10° 93° (E) 1,524 4.5 -7.7°
Enters shadow 18:41:44 - 94° (E) 1,568 4.5 -7.7°
